Miscellaneous Local Product
Issued by NWS North Platte, NE

Home | Current Version | Previous Version | Text Only | Print | Product List | Glossary On
Versions: 1 2 3 4 5 6 7 8 9 10 11 12 13 14 15 16 17 18 19 20 21 22 23 24 25 26 27 28 29 30 31 32 33 34 35 36 37 38 39 40 41 42 43 44 45 46 47 48 49 50
000
AXUS43 KLBF 290810
MISLBF


WESTERN AND NORTH CENTRAL NEBRASKA HOURLY WEATHER ROUNDUP
NATIONAL WEATHER SERVICE NORTH PLATTE NE
300 AM CDT MON JUN 29 2015

***STATIONS NOT REPORTING VARIABLES SUCH AS SKY/WEATHER OR
PRESSURE ARE PROVIDED BY THE NEBRASKA DEPARTMENT OF
ROADS...RAWS...AND APRS NETWORKS...AND ARE NOT UNDER
NATIONAL WEATHER SERVICE QUALITY CONTROL***

...OBSERVATIONS IN AND NEAR THE EASTERN PANHANDLE OF NEBRASKA...

CITY           SKY/WX    TMP DP  RH WIND       PRES   REMARKS
PINE RIDGE     CLEAR     57  54  89 E6        30.09F
CHADRON        CLEAR     59  57  93 CALM      30.09S
ALLIANCE       CLOUDY    63  58  83 W6        30.14R THUNDER
SIDNEY         PTCLDY    62  54  74 S8        30.14F
WHITECLAY        N/A     58  55  91 E5          N/A
CRESCENT LAKE    N/A     67  58  72 CALM        N/A
BIG SPRINGS      N/A     64  59  83 CALM        N/A
$$

...OBSERVATIONS IN NORTH CENTRAL NEBRASKA...

CITY           SKY/WX    TMP DP  RH WIND       PRES   REMARKS
VALENTINE      CLEAR     57  55  93 W3        30.05S
THEDFORD       CLEAR     58  56  93 W3        30.09R
AINSWORTH      CLEAR     60  53  78 W6        30.04S
O`NEILL        MOCLDY    60  57  89 W5        30.00S
ORD            CLEAR     55  53  93 CALM      30.00S
BROKEN BOW     CLEAR     57  54  89 CALM      30.04S
VALENTINE NWR    N/A     59  58  95 CALM        N/A
SPRINGVIEW       N/A     57  55  92 CALM        N/A
BREWSTER         N/A     59  56  88 CALM        N/A
ROSE             N/A     74  72  93 W6          N/A
NEWPORT          N/A     56  55  97 W5          N/A
SARGENT          N/A     58  55  89 CALM        N/A
CHAMBERS         N/A     60  55  83 CALM        N/A
EWING            N/A     59  56  89 CALM        N/A
$$

...OBSERVATIONS IN SOUTHWEST NEBRASKA AND FAR NORTHEAST COLORADO...

CITY           SKY/WX    TMP DP  RH WIND       PRES   REMARKS
WRAY           FAIR      65  54  65 MISG      30.12F
HOLYOKE        FAIR      64  55  72 W5        30.13S
IMPERIAL       PTCLDY    63  57  81 CALM      30.10S
OGALLALA       CLEAR     61  57  87 CALM      30.10F
NORTH PLATTE   CLEAR     58  56  93 CALM      30.07S
MCCOOK         CLEAR     64  57  78 W3        30.06S
LEXINGTON      CLEAR     58  55  91 NW3       30.05S
PAXTON           N/A     61  57  87 CALM        N/A
GOTHENBURG       N/A     64  55  74 CALM        N/A
CALLAWAY         N/A     55  52  91 W3          N/A
$$

...NORTH PLATTE AREA...

CITY           SKY/WX    TMP DP  RH WIND       PRES   REMARKS
AIRPORT        CLEAR     58  56  93 CALM      30.07S
DOWNTOWN         N/A     64  60  86 CALM        N/A
SANDRIDGE        N/A     64  59  85 CALM        N/A
HILLCREST        N/A     64  57  78 N3          N/A
$$

...SOME WEATHER OBSERVATIONS FROM AROUND THE REGION...

CITY           SKY/WX    TMP DP  RH WIND       PRES   REMARKS
DENVER         CLOUDY    67  52  58 SW9       30.20F
LARAMIE        PTCLDY    57  49  74 S6        30.34F
CHEYENNE       CLOUDY    65  52  62 NW3       30.25F
SCOTTSBLUFF    PTCLDY    67  56  67 E6        30.13S
RAPID CITY     CLEAR     63  59  87 CALM      30.06F
PIERRE         CLEAR     61  56  83 CALM      29.99R
WINNER         FAIR      64  52  64 SW7       30.01S
SIOUX FALLS    CLEAR     65  59  81 NW3       29.92R
OMAHA          CLEAR     67  60  78 CALM      29.90S
GRAND ISLAND   CLEAR     59  54  83 W7        30.00S
KANSAS CITY    CLEAR     66  61  84 NW7       29.88S
WICHITA        PTCLDY    75  57  53 NE5       29.95S
HAYS           PTCLDY    64  48  55 SW3       30.03R
LIBERAL        PTCLDY    73  59  60 W5          N/A
GOODLAND       PTCLDY    70  50  49 SW9       30.13R
$$



USA.gov is the U.S. government's official web portal to all federal, state and local government web resources and services.